STARLINK-32314, 61709

Orbit data source: Space-Track

STARLINK-32314, 61709 is a payload satellite owned by SpaceX/Seattle (US) in LEO that was launched on Wed, 30 Oct 2024 UTC via an FALCON 9 launch vehicle from the Air Force Eastern Test Range (AFETR). Payload-class satellites include a variety of spacecraft equipped with specific instruments for various scientific and technological missions. These include communications satellites like Starlink; space stations such as the ISS; scientific satellites like the Hubble; Earth observation satellites from companies like Planet Labs, Umbra, and HawkEye 360; GPS; miniature CubeSats for education and research; and military/defense satellites.

Loading next visibility...
Identifier
61709, 2024-196C
Orbit
LEO
Country
Flag of USUS
Related business
Manufacturer
SpaceX/Seattle
Mission
Operational Commercial Communications
Bus & Motor
STARLINK V2M, Unknown motor
Mass
730 kg wet, ~700 kg dry
Launch date (UTC)
2024-10-30 (2 years ago)
Launch vehicle
FALCON 9
Launch site
Air Force Eastern Test Range (AFETR)
Object type
Payload
Rocket body
Debris
Shape & HBR
Box + 2 Pan, 17.7 m
Radar Cross Section
33.884 m², Large (>1 m²)

Expand to show TLE details & history
Last TLE update: 1 day ago

TLE from 1 day ago
0 STARLINK-32314
1 61709U 24196C   26207.32204130  .00000229  00000-0  17920-4 0  9993
2 61709  53.1610 176.5674 0001458  87.5588 272.5581 15.34387550 98396
Epoch: 2026-07-26T07:43Z
TLE epoch observation values (Epoch: 2026-07-26T07:43:44.368Z)
Latitude
-0.00005°
Longitude
116.61086°
Altitude
463.597 km
Speed
7.636 km/s
True Right ascension
11h 46m 16s
True Declination
0° 00' 00"
Sunlit
Object was in daylight at epoch
Visualization orbit readout
Latitude
Unknown
Longitude
Unknown
Altitude
Unknown
Speed
Unknown
Apparent Right ascension
Unknown
Apparent Declination
Unknown
Sunlit
N/A
Visualization observer readout
Local Sidereal Time
21:03:56
Azimuth
Unknown
Elevation
Unknown
Doppler factor
Unknown
Orbital elements
Apogee altitude
463.994 km
Perigee altitude
462 km
Semi-major axis
6,841.134 km
Eccentricity
0.00015
Inclination
53.161°
RAAN
176.5674°
Arg. of periapsis
87.5588°
True anomaly
272.54141°
Mean anomaly
272.5581°
Eccentric anomaly
272.54975°
Mean motion
3.83576 °/min
Orbital period
93.85 mins
BSTAR
0.00001792
Loading maneuver chart data...
Computing Atmospheric mass density...
Loading historical data...
Loading historical data...
Loading historical data...
Loading historical data...
Loading historical data...
Loading historical data...
Loading historical data...

Documentation

Showing up to 5 results
|